This is the latest recevied weather packets stored in our database for station/object S51DM-10. If no packets are shown the sender has not sent any weather packets the latest 1 day(s).
| Time | Temp. | Humidity | Pressure | Rain* | Wind** | Luminosity | Snow |
|---|---|---|---|---|---|---|---|
| 1778045663 | 17.78° C | 62% | 1013.2 hPa | - | - | - | - |
| 1778044762 | 17.78° C | 63% | 1013 hPa | - | - | - | - |
| 1778042960 | 16.67° C | 64% | 1012.7 hPa | - | - | - | - |
| 1778042060 | 16.67° C | 65% | 1012.7 hPa | - | - | - | - |
| 1778041159 | 16.67° C | 65% | 1012.8 hPa | - | - | - | - |
| 1778040259 | 16.11° C | 66% | 1012.4 hPa | - | - | - | - |
| 1778039356 | 16.11° C | 65% | 1012.4 hPa | - | - | - | - |
| 1778038455 | 16.11° C | 65% | 1012.4 hPa | - | - | - | - |
| 1778037555 | 16.11° C | 65% | 1012.4 hPa | - | - | - | - |
| 1778036654 | 16.67° C | 65% | 1012.4 hPa | - | - | - | - |
| 1778035753 | 16.67° C | 64% | 1012.6 hPa | - | - | - | - |
| 1778034852 | 16.67° C | 64% | 1012.5 hPa | - | - | - | - |
| 1778033951 | 16.67° C | 64% | 1012.6 hPa | - | - | - | - |
| 1778031249 | 16.67° C | 62% | 1012 hPa | - | - | - | - |
| 1778030348 | 16.67° C | 63% | 1011.9 hPa | - | - | - | - |
| 1778029447 | 17.22° C | 62% | 1011.8 hPa | - | - | - | - |
| 1778028546 | 17.22° C | 63% | 1011.8 hPa | - | - | - | - |
| 1778020439 | 16.11° C | 61% | 1012.7 hPa | - | - | - | - |
| 1778019538 | 16.11° C | 62% | 1012.7 hPa | - | - | - | - |
| 1778017736 | 16.11° C | 60% | 1012.6 hPa | - | - | - | - |
| 1778016835 | 16.67° C | 60% | 1012.6 hPa | - | - | - | - |
| 1778011430 | 16.67° C | 56% | 1012.9 hPa | - | - | - | - |
| 1778010529 | 17.22° C | 54% | 1013.2 hPa | - | - | - | - |
| 1778009628 | 17.78° C | 54% | 1013 hPa | - | - | - | - |
| 1778006025 | 18.89° C | 51% | 1012.8 hPa | - | - | - | - |
* Rain since midnight (hover to see other rain measurements)
** Current wind speed in m/s (hover to see current wind gust speed)